sat.trackr.live / text

‹ back to catalog

STARLINK-30889

NORAD 58368 · 2023-177T

PAYLOAD ACTIVE UNKNOWN

§ Identity

Operator
Country
US
Launch date
2023-11-18
Launch site
AFETR
Launch vehicle
Mass (kg)
RCS (m²)

Purposes: comms

External: N2YO · Heavens-Above · Gunter

§ Orbital elements

Epoch: 2026-09-20T11:09:28.957536Z

Period
94.27 min
Inclination
43.0024°
Eccentricity
0.0001391
Mean motion
15.27581034 rev/d
Perigee alt
482.1 km
Apogee alt
484.0 km
Semi-major
6,861.2 km
B*
4.0235e-5
RAAN
330.7981°
Arg perigee
271.6087°
Mean anomaly
88.4605°
Rev number
15,801

§ Raw data

STARLINK-308891 58368U 23177T   26263.46491849  .00000845  00000+0  40235-4 0  99982 58368  43.0024 330.7981 0001391 271.6087  88.4605 15.27581034158013

JSON: /api/v1/satellites/58368 · /tle

For live sub-satellite position, see the globe view (requires WebGL).

§ Visibility from observer

Set your observer location to see the next 7 days of passes ≥ 10°. The values pass through the URL so the page stays shareable.

No JS? Fill the form by hand. The geolocation button needs JavaScript.